Baker, OR

1:18 AM PDT on May 25, 2017 (GMT -0700)
Baker City Municipal

Weather History for KBKE - August, 2013

Change the Weather History Date:

Saturday, August 3, 2013

  Actual Average Record
Temperature  
Mean Temperature 61 °F 67 °F  
Max Temperature 81 °F 87 °F 103 °F (1961)
Min Temperature 41 °F 47 °F 33 °F (2002)
Degree Days  
Heating Degree Days 4 1  
Month to date heating degree days 9 3  
Since 1 June heating degree days 226 299  
Since 1 July heating degree days 30 73  
Cooling Degree Days 0 3  
Month to date cooling degree days 0 9  
Year to date cooling degree days 133 102  
Since 1 June cooling degree days 129 100  
Growing Degree Days 12 (Base 50)    
Moisture  
Dew Point 46 °F    
Average Humidity 61    
Maximum Humidity 96    
Minimum Humidity 26    
Precipitation  
Precipitation 0.01 in 0.02 in 0.97 in (1976)
Month to date precipitation 0.33 0.06  
Year to date precipitation 6.01 6.42  
Sea Level Pressure  
Sea Level Pressure 30.06 in    
Wind  
Wind Speed 4 mph (West)    
Max Wind Speed 15 mph    
Max Gust Speed 18 mph    
Visibility 10 miles    
Events      
T = Trace of Precipitation, MM = Missing Value Source: NWS Daily Summary

Daily Weather History Graph

Daily Weather History Graph

Search for Another Location

Airport or City:

Trip Planner

Search our weather history database for the weather conditions in past years. The results will help you decide how hot, cold, wet, or windy it might be!

Date:

Astronomy

Aug. 03, 2013 Rise Set
Actual Time 5:39 AM PDT 8:14 PM PDT
Civil Twilight 5:06 AM PDT 8:47 PM PDT
Nautical Twilight 4:24 AM PDT 9:29 PM PDT
Astronomical Twilight 3:36 AM PDT 10:16 PM PDT
Moon 2:51 AM PDT (8/3) 6:01 PM PDT (8/3)
Length of Visible Light 15h 41m
Length of Day
14h 34m
Waning Crescent, 9% of the Moon is Illuminated
Aug 3
Waning Crescent
Aug 6
New
Aug 14
First Quarter
Aug 20
Full
Aug 28
Last Quarter

Hourly Weather History & Observations

Time (PDT) Temp. Windchill Dew Point Humidity Pressure Visibility Wind Dir Wind Speed Gust Speed Precip Events Conditions
12:53 AM 48.9 °F - 46.0 °F 90% 30.07 in 10.0 mi SW 3.5 mph - N/A   Clear
1:53 AM 48.0 °F - 45.0 °F 89% 30.07 in 10.0 mi WSW 4.6 mph - N/A   Clear
2:53 AM 46.0 °F - 45.0 °F 96% 30.08 in 10.0 mi Calm Calm - N/A   Clear
3:53 AM 46.0 °F 43.9 °F 43.0 °F 89% 30.08 in 10.0 mi SW 4.6 mph - 0.01 in   Clear
4:53 AM 44.1 °F 41.5 °F 42.1 °F 93% 30.10 in 10.0 mi West 4.6 mph - N/A   Clear
5:53 AM 43.0 °F - 41.0 °F 93% 30.11 in 10.0 mi Calm Calm - N/A   Clear
6:53 AM 48.0 °F - 46.0 °F 93% 30.12 in 10.0 mi Calm Calm - N/A   Clear
7:53 AM 55.0 °F - 48.0 °F 77% 30.12 in 10.0 mi Calm Calm - N/A   Clear
8:53 AM 62.1 °F - 48.0 °F 60% 30.12 in 10.0 mi Calm Calm - N/A   Clear
9:53 AM 64.9 °F - 48.9 °F 56% 30.12 in 10.0 mi WSW 3.5 mph - N/A   Clear
10:53 AM 69.1 °F - 48.9 °F 49% 30.11 in 10.0 mi Calm Calm - N/A   Clear
11:53 AM 73.0 °F - 45.0 °F 37% 30.09 in 10.0 mi Calm Calm - N/A   Clear
12:53 PM 75.0 °F - 46.0 °F 36% 30.07 in 10.0 mi Calm Calm - N/A   Clear
1:53 PM 79.0 °F - 41.0 °F 26% 30.05 in 10.0 mi Variable 3.5 mph - N/A   Clear
2:53 PM 80.1 °F - 42.1 °F 26% 30.04 in 10.0 mi NW 5.8 mph - N/A   Clear
3:53 PM 80.1 °F - 43.0 °F 27% 30.02 in 10.0 mi NW 9.2 mph - N/A   Clear
4:53 PM 80.1 °F - 43.0 °F 27% 30.01 in 10.0 mi NW 8.1 mph - N/A   Clear
5:53 PM 78.1 °F - 46.0 °F 32% 30.01 in 10.0 mi NW 10.4 mph - N/A   Clear
6:53 PM 75.0 °F - 46.0 °F 36% 30.00 in 10.0 mi NW 10.4 mph - N/A   Clear
7:53 PM 69.1 °F - 48.0 °F 47% 30.00 in 10.0 mi WNW 9.2 mph - N/A   Clear
8:53 PM 63.0 °F - 50.0 °F 63% 30.02 in 10.0 mi West 6.9 mph - N/A   Clear
9:53 PM 57.9 °F - 48.9 °F 72% 30.04 in 10.0 mi West 4.6 mph - N/A   Clear
10:53 PM 54.0 °F - 48.0 °F 80% 30.04 in 10.0 mi SE 3.5 mph - N/A   Clear
11:53 PM 54.0 °F - 46.9 °F 77% 30.04 in 10.0 mi Calm Calm - N/A   Clear